SCP
-0 -0 -0 -0 -0 -0 -0 -0 -0 -0 -0 -0 0 0 0 0 0 0 0 0 0 0 0 0 0 0 0 0 0 0 0 0 0 0 0 0 0 0 0 0 0 0 0
-0 0 -0 -0 -0 -0 -0 -0 -0 -0 -0 0 0 -0 -0 -0 -0 0 0 0 0 0 0 0 0 0 0 0 0 0 0 0 0 0 0 0 0 0 0 0 0 0 0
-0 0 -0 -0 -0 -0 -0 -0 -0 -0 -0 -0 -0 -0 -0 -0 -0 -0 0 0 0 0 0 0 0 0 0 0 0 0 0 0 0 0 0 0 0 0 0 0 0 0 0
-0 0 0 -0 -0 -0 -0 -0 -0 -0 -0 -0 -0 -0 -0 -0 -0 0 0 0 0 0 0 0 0 0 0 -0 -0 -0 0 0 -0 -0 0 0 0 0 0 0 0 0 0
-0 -0 -0 -0 -0 -0 -0 -0 -0 -0 -0 -0 -0 -0 -0 0 0 0 0 0 0 0 0 0 0 0 0 0 0 0 0 0 0 0 0 0 0 0 0 0 0 0 0
-0 -0 -0 -0 -0 -0 -0 -0 -0 -0 -0 -0 -0 -0 0 0 0 0 0 0 0 0 0 0 0 0 0 0 0 0 0 0 0 0 0 0 0 0 0 0 0 0 0
-0 -0 -0 -0 -0 -0 -0 -0 -0 -0 -0 -0 -0 -0 0 0 0 0 0 0 0 0 0 0 0 0 0 0 0 0 0 0 0 0 0 0 0 0 0 0 0 0 0
-0 -0 0 -0 -0 0 0 0 0 -0 -0 -0 -0 -0 -0 0 -0 -0 0 0 0 0 0 0 0 0 0 0 0 0 0 0 0 0 0 0 0 0 0 0 0 0 0
-0 -0 0 0 0 0 0 0 0 0 0 0 -0 -0 -0 -0 -0 0 0 0 0 0 0 0 0 0 0 0 0 0 0 0 0 0 0 0 0 0 0 0 0 0 0
0 0 0 0 0 0 0 0 0 0 0 0 -0 -0 -0 -0 0 0 0 0 0 0 0 0 0 0 0 0 0 0 0 0 0 0 0 0 0 0 0 0 0 0 0
0 0 0 0 0 0 0 0 0 0 0 0 0 0 0 0 0 0 0 0 0 0 0 0 0 0 0 0 0 0 0 0 0 0 0 0 0 0 0 0 0 0 0
0 0 0 0 0 0 0 0 0 0 0 0 0 0 0 0 0 0 0 0 0 0 0 0 0 0 0 0 0 0 0 0 0 0 0 0 0 0 0 0 0 0 0
0 0 0 0 0 0 0 0 0 0 0 0 0 0 0 0 0 0 0 0 0 0 0 0 0 0 0 0 0 0 0 0 0 0 0 0 0 0 0 0 0 0 0
0 0 0 0 0 0 0 0 0 0 0 0 0 0 0 0 0 0 0 0 0 0 0 0 0 0 0 0 0 0 0 0 0 0 0 0 0 0 0 0 0 0 0
0 0 0 0 0 0 0 0 0 0 0 0 0 0 0 0 0 0 0 0 0 0 0 0 0 0 0 0 0 0 0 0 0 0 0 0 0 0 0 0 0 0 0
0 0 0 0 0 0 0 0 0 0 0 0 0 0 0 0 0 0 0 0 0 0 0 0 0 0 0 0 0 0 0 0 0 0 0 0 0 0 0 0 0 0 0
0 0 0 0 0 0 0 0 0 0 0 0 0 0 0 0 0 0 0 0 0 0 0 0 0 0 0 0 0 0 0 0 0 0 0 0 0 0 0 0 0 0 0
0 0 0 0 0 0 0 0 0 0 0 0 0 0 0 0 0 0 0 0 0 0 0 0 0 0 0 0 0 0 0 0 0 0 0 0 0 0 0 0 0 0 0
0 0 0 0 0 0 0 0 0 0 0 0 0 0 0 0 0 0 0 0 0 0 0 0 0 0 0 0 0 0 0 0 0 0 0 0 0 0 0 0 0 0 0
0 0 0 0 0 0 0 0 0 0 0 0 0 0 0 0 0 0 0 0 0 0 0 0 0 0 0 0 0 0 0 0 0 0 0 0 0 0 0 0 0 0 0
0 0 0 0 0 0 0 0 0 0 0 0 0 0 0 0 0 0 0 0 0 0 0 0 0 0 0 0 0 0 0 0 0 0 0 0 0 0 0 0 0 0 0
0 0 0 0 0 0 0 0 0 0 0 0 0 0 0 0 0 0 0 0 0 0 0 0 0 0 0 0 0 0 0 0 0 0 0 0 0 0 0 0 0 0 0
0 0 0 0 0 0 0 0 0 0 0 0 0 0 0 0 0 0 0 0 0 0 0 0 0 0 0 0 0 0 0 0 0 0 0 0 0 0 0 0 0 0 0
0 0 0 0 0 0 0 0 0 0 0 0 0 0 0 0 0 0 0 0 0 0 0 0 0 0 0 0 0 0 0 0 0 0 0 0 0 0 0 0 0 0 0
0 0 0 0 0 0 0 0 0 0 0 0 0 0 0 0 0 0 0 0 0 0 0 0 0 0 0 0 0 0 0 0 0 0 0 0 0 0 0 0 0 0 0
0 0 0 0 0 0 0 0 0 0 0 0 0 0 0 0 0 0 0 0 0 0 0 0 0 0 0 0 0 0 0 0 0 0 0 0 0 0 0 0 0 0 0
Wind_Speed_500mb
38 33 26 22 20 19 19 19 18 17 16 15 15 14 14 14 16 17 17 17 16 16 17 19 19 21 22 22 21 19 18 17 16 17 17 17 16 15 13 12 13 14 14
45 36 28 24 22 20 19 18 16 14 13 13 14 13 12 12 12 10 12 16 13 11 8 12 14 14 15 16 18 21 22 21 19 18 18 17 17 18 17 19 16 14 15
42 37 31 26 22 19 17 15 13 12 12 9 7 5 7 9 12 14 15 17 18 16 15 17 18 19 19 18 18 19 17 18 21 21 20 20 19 19 20 19 18 19 18
36 35 30 26 21 18 16 14 11 10 7 6 6 7 8 10 12 13 15 17 19 20 21 21 22 22 23 25 26 28 29 28 26 24 25 23 24 22 21 19 19 22 22
37 33 30 25 20 17 15 11 9 6 7 7 7 9 10 13 15 17 18 20 22 23 25 26 28 28 28 29 29 30 32 33 33 34 33 31 30 27 25 22 23 25 27
40 33 28 24 19 17 12 9 5 6 6 7 9 11 14 15 15 18 22 25 27 28 27 26 27 28 29 30 32 33 34 36 37 37 37 35 34 32 30 28 30 32 32
40 34 27 22 18 15 9 5 5 5 6 9 11 14 15 16 20 23 24 24 25 26 28 29 30 30 32 33 33 34 33 33 34 35 37 38 37 37 37 37 38 37 36
37 34 28 25 19 11 7 4 4 6 8 11 13 14 16 17 18 20 23 24 27 30 30 30 32 34 35 35 34 34 35 36 34 32 31 31 33 36 37 38 43 46 42
34 31 28 24 17 10 5 3 5 7 9 12 13 15 15 17 20 22 25 28 30 31 34 35 36 36 36 36 36 36 34 34 33 31 30 30 30 29 27 28 35 39 40
31 27 25 22 15 9 4 3 5 8 10 12 14 15 17 18 21 24 27 28 31 32 34 36 37 38 37 36 36 35 34 31 30 29 29 28 27 22 21 24 21 24 34
32 26 24 19 13 9 4 3 6 9 11 13 16 17 17 18 22 25 26 28 31 34 38 38 37 36 37 36 35 33 32 31 28 27 27 26 23 15 18 24 22 25 25
34 28 25 19 13 9 3 2 6 10 13 15 17 16 17 20 22 24 25 29 34 37 37 36 37 37 36 35 33 31 29 27 26 26 24 23 23 16 17 23 25 27 29
32 27 26 20 15 9 3 2 6 10 13 15 16 16 18 19 19 20 27 32 34 35 36 36 36 37 38 37 34 31 29 26 23 22 21 21 20 21 22 24 27 27 27
32 26 26 21 15 8 3 2 7 11 13 14 14 15 15 13 16 23 29 33 35 38 41 40 39 38 36 36 36 32 30 26 22 20 19 18 16 19 21 27 28 25 22
34 28 22 18 13 8 4 3 6 9 12 13 14 13 12 13 18 23 29 34 38 41 41 40 40 40 40 39 36 32 28 23 19 16 16 16 15 15 18 25 25 23 22
34 26 20 17 13 8 6 6 7 8 10 12 13 13 13 15 19 23 29 35 39 40 40 41 43 43 43 43 39 31 26 19 15 13 13 14 12 11 16 22 29 28 24
31 24 19 17 14 10 10 11 11 10 10 12 13 14 15 17 20 24 29 34 38 38 37 37 36 35 36 37 36 29 21 15 13 10 10 12 14 12 15 22 25 29 27
31 23 19 19 16 14 15 15 14 13 12 13 14 16 17 19 21 25 29 34 36 37 37 37 39 37 37 39 37 29 16 13 9 9 11 10 11 16 22 26 33 34 43
27 19 17 18 18 19 19 19 17 16 16 15 16 17 19 21 22 24 28 33 34 35 35 35 37 42 41 39 35 26 17 11 9 10 10 10 13 16 24 26 30 32 38
25 21 17 18 21 22 21 21 20 18 18 17 16 17 19 21 22 22 27 31 31 30 32 33 35 37 39 38 36 24 17 11 12 14 15 15 18 16 20 26 28 33 34
29 26 22 18 21 21 22 22 20 20 19 18 16 17 19 20 19 24 26 27 27 29 34 37 38 37 39 39 34 27 18 15 13 18 23 20 21 21 21 26 30 32 36
25 28 25 22 24 24 23 22 20 19 18 16 16 16 18 17 19 24 26 24 27 30 33 35 37 38 38 40 39 31 16 14 13 37 20 20 22 26 28 32 35 37 36
24 26 26 25 27 26 25 25 22 21 18 16 14 16 17 17 21 23 23 26 29 33 34 35 36 37 36 34 34 24 13 10 45 17 19 19 25 29 36 41 42 44 41
29 29 26 27 28 29 29 26 23 21 18 14 13 13 15 19 18 21 26 30 33 35 36 37 37 37 38 36 34 30 27 28 17 22 15 36 18 35 34 30 37 33 32
27 24 25 30 31 28 26 24 22 19 15 12 12 12 13 14 19 25 29 32 35 36 37 39 38 37 38 38 36 35 35 33 33 34 53 41 51 37 31 36 32 31 22
20 23 26 23 22 20 20 20 18 16 13 11 12 11 13 18 23 28 34 39 42 42 40 40 41 40 40 40 37 36 37 36 41 40 51 63 65 62 54 28 24 17 14
Wind_Direction_500mb
160 156 160 150 140 132 122 113 103 95 86 76 67 58 47 35 35 38 33 20 11 16 13 1 358 356 353 351 351 352 351 347 344 340 336 330 327 323 325 338 350 350 347
153 159 158 151 145 135 123 112 102 92 80 69 59 52 48 43 37 4 338 332 329 335 325 316 313 319 327 330 331 332 333 331 329 327 325 322 317 313 314 315 319 330 336
157 157 155 152 146 135 122 110 98 84 74 75 67 37 356 336 330 328 330 332 334 334 326 312 305 301 300 301 303 303 312 308 307 311 313 309 308 307 296 307 303 313 318
158 155 153 150 145 136 125 117 102 88 57 19 10 359 347 345 346 344 341 342 341 338 334 326 319 313 308 304 298 292 291 293 298 298 295 299 298 301 297 293 301 303 310
158 156 153 151 148 140 130 116 108 54 23 23 16 3 356 355 353 349 347 345 342 337 331 325 320 315 312 308 302 296 290 288 287 286 287 290 289 290 291 290 291 298 293
156 156 156 153 151 141 131 117 74 35 30 17 2 1 357 356 356 354 350 345 339 337 334 332 326 320 316 313 308 302 296 291 287 286 284 283 282 280 279 277 280 284 282
156 157 157 153 146 141 131 99 53 35 19 8 2 3 5 3 355 350 348 347 345 342 340 339 334 331 328 325 319 313 307 302 298 293 288 285 284 280 273 269 272 275 283
160 158 158 154 157 156 126 80 43 19 8 9 5 7 3 357 355 353 350 350 354 351 347 344 340 339 333 329 323 319 316 312 311 308 302 296 290 286 284 274 268 273 277
164 164 162 162 165 157 131 72 23 11 9 7 5 5 3 359 357 358 359 359 358 355 353 351 346 343 339 334 329 327 325 322 320 319 317 308 302 304 311 313 281 275 276
161 166 170 170 168 159 131 59 23 9 4 6 8 7 3 5 6 5 5 3 3 0 356 353 350 347 344 342 340 336 330 328 325 323 323 324 324 323 323 306 303 303 281
169 171 178 180 174 164 140 65 19 8 8 7 6 5 12 12 13 12 10 8 5 0 358 354 349 347 349 346 342 338 336 334 334 332 331 330 336 356 306 299 301 298 298
176 177 182 185 180 168 164 63 19 10 8 8 7 11 15 17 18 17 12 9 5 2 357 354 353 351 346 345 344 342 339 337 337 338 340 342 344 352 335 328 307 296 295
187 192 186 188 185 183 183 49 14 8 7 7 10 13 14 19 20 13 12 9 6 0 357 357 354 352 352 346 344 342 341 338 337 340 343 348 346 348 347 335 326 320 314
187 189 185 187 189 195 212 7 3 4 2 4 8 10 13 14 12 10 8 4 1 1 2 359 358 357 354 349 345 343 342 341 340 340 345 348 348 349 346 337 336 332 327
192 187 188 194 202 211 241 309 342 353 351 357 2 2 1 359 4 3 1 360 0 1 1 360 360 360 356 353 349 344 344 343 348 353 357 4 14 351 339 326 341 0 6
197 198 202 210 216 229 261 284 308 327 339 350 350 350 346 349 352 352 354 357 357 358 360 360 0 2 357 349 348 350 347 348 4 6 5 11 16 2 337 326 327 338 345
203 213 215 225 233 241 260 276 289 308 324 333 336 335 337 337 339 344 350 353 353 353 358 358 1 1 356 356 350 351 352 3 11 21 35 23 16 4 343 339 337 342 343
206 219 221 226 238 247 258 268 280 297 311 319 324 326 331 328 332 338 344 348 349 350 355 356 354 3 5 360 359 0 11 10 25 16 15 26 14 355 349 350 2 10 10
209 217 228 232 242 248 259 269 278 293 302 309 316 322 326 325 326 331 340 343 347 350 350 355 358 358 3 3 1 359 6 7 5 1 358 353 344 343 345 3 360 357 1
211 215 232 238 243 252 263 273 283 291 293 296 305 313 322 320 318 330 337 340 346 346 347 352 355 356 357 1 1 351 347 334 334 330 325 319 329 325 332 341 336 340 344
213 218 227 248 249 258 269 276 281 283 287 290 298 308 313 312 322 328 331 336 338 339 342 344 347 350 349 352 356 351 329 311 311 323 311 303 309 321 312 318 323 321 328
218 223 236 250 253 259 266 271 278 285 285 288 297 302 310 315 316 319 327 332 330 332 334 334 338 341 344 346 352 353 341 313 304 316 287 289 296 307 312 314 313 312 316
213 228 242 247 253 256 263 270 277 279 285 290 286 303 307 307 316 321 325 326 326 327 328 327 329 330 333 338 340 345 337 312 325 330 317 303 300 307 314 312 307 307 306
220 236 247 256 257 255 258 265 272 279 285 278 289 294 299 308 315 318 321 323 325 325 323 322 321 323 323 326 325 325 318 311 316 313 287 313 297 320 321 325 314 312 310
227 247 260 263 254 250 252 257 262 275 276 273 283 292 301 309 316 317 319 319 319 317 316 315 316 316 316 317 314 311 306 306 301 290 302 304 304 310 313 325 324 316 310
246 262 265 256 242 235 238 243 256 265 266 271 281 293 303 312 315 317 318 317 316 315 315 314 314 314 313 309 307 302 298 296 298 296 293 302 306 311 312 311 317 332 311
Wind_Speed_850mb
38 33 26 22 20 19 19 19 18 17 16 15 15 14 14 14 16 17 17 17 16 16 17 19 19 21 22 22 21 19 18 17 16 17 17 17 16 15 13 12 13 14 14
45 36 28 24 22 20 19 18 16 14 13 13 14 13 12 12 12 10 12 16 13 11 8 12 14 14 15 16 18 21 22 21 19 18 18 17 17 18 17 19 16 14 15
42 37 31 26 22 19 17 15 13 12 12 9 7 5 7 9 12 14 15 17 18 16 15 17 18 19 19 18 18 19 17 18 21 21 20 20 19 19 20 19 18 19 18
36 35 30 26 21 18 16 14 11 10 7 6 6 7 8 10 12 13 15 17 19 20 21 21 22 22 23 25 26 28 29 28 26 24 25 23 24 22 21 19 19 22 22
37 33 30 25 20 17 15 11 9 6 7 7 7 9 10 13 15 17 18 20 22 23 25 26 28 28 28 29 29 30 32 33 33 34 33 31 30 27 25 22 23 25 27
40 33 28 24 19 17 12 9 5 6 6 7 9 11 14 15 15 18 22 25 27 28 27 26 27 28 29 30 32 33 34 36 37 37 37 35 34 32 30 28 30 32 32
40 34 27 22 18 15 9 5 5 5 6 9 11 14 15 16 20 23 24 24 25 26 28 29 30 30 32 33 33 34 33 33 34 35 37 38 37 37 37 37 38 37 36
37 34 28 25 19 11 7 4 4 6 8 11 13 14 16 17 18 20 23 24 27 30 30 30 32 34 35 35 34 34 35 36 34 32 31 31 33 36 37 38 43 46 42
34 31 28 24 17 10 5 3 5 7 9 12 13 15 15 17 20 22 25 28 30 31 34 35 36 36 36 36 36 36 34 34 33 31 30 30 30 29 27 28 35 39 40
31 27 25 22 15 9 4 3 5 8 10 12 14 15 17 18 21 24 27 28 31 32 34 36 37 38 37 36 36 35 34 31 30 29 29 28 27 22 21 24 21 24 34
32 26 24 19 13 9 4 3 6 9 11 13 16 17 17 18 22 25 26 28 31 34 38 38 37 36 37 36 35 33 32 31 28 27 27 26 23 15 18 24 22 25 25
34 28 25 19 13 9 3 2 6 10 13 15 17 16 17 20 22 24 25 29 34 37 37 36 37 37 36 35 33 31 29 27 26 26 24 23 23 16 17 23 25 27 29
32 27 26 20 15 9 3 2 6 10 13 15 16 16 18 19 19 20 27 32 34 35 36 36 36 37 38 37 34 31 29 26 23 22 21 21 20 21 22 24 27 27 27
32 26 26 21 15 8 3 2 7 11 13 14 14 15 15 13 16 23 29 33 35 38 41 40 39 38 36 36 36 32 30 26 22 20 19 18 16 19 21 27 28 25 22
34 28 22 18 13 8 4 3 6 9 12 13 14 13 12 13 18 23 29 34 38 41 41 40 40 40 40 39 36 32 28 23 19 16 16 16 15 15 18 25 25 23 22
34 26 20 17 13 8 6 6 7 8 10 12 13 13 13 15 19 23 29 35 39 40 40 41 43 43 43 43 39 31 26 19 15 13 13 14 12 11 16 22 29 28 24
31 24 19 17 14 10 10 11 11 10 10 12 13 14 15 17 20 24 29 34 38 38 37 37 36 35 36 37 36 29 21 15 13 10 10 12 14 12 15 22 25 29 27
31 23 19 19 16 14 15 15 14 13 12 13 14 16 17 19 21 25 29 34 36 37 37 37 39 37 37 39 37 29 16 13 9 9 11 10 11 16 22 26 33 34 43
27 19 17 18 18 19 19 19 17 16 16 15 16 17 19 21 22 24 28 33 34 35 35 35 37 42 41 39 35 26 17 11 9 10 10 10 13 16 24 26 30 32 38
25 21 17 18 21 22 21 21 20 18 18 17 16 17 19 21 22 22 27 31 31 30 32 33 35 37 39 38 36 24 17 11 12 14 15 15 18 16 20 26 28 33 34
29 26 22 18 21 21 22 22 20 20 19 18 16 17 19 20 19 24 26 27 27 29 34 37 38 37 39 39 34 27 18 15 13 18 23 20 21 21 21 26 30 32 36
25 28 25 22 24 24 23 22 20 19 18 16 16 16 18 17 19 24 26 24 27 30 33 35 37 38 38 40 39 31 16 14 13 37 20 20 22 26 28 32 35 37 36
24 26 26 25 27 26 25 25 22 21 18 16 14 16 17 17 21 23 23 26 29 33 34 35 36 37 36 34 34 24 13 10 45 17 19 19 25 29 36 41 42 44 41
29 29 26 27 28 29 29 26 23 21 18 14 13 13 15 19 18 21 26 30 33 35 36 37 37 37 38 36 34 30 27 28 17 22 15 36 18 35 34 30 37 33 32
27 24 25 30 31 28 26 24 22 19 15 12 12 12 13 14 19 25 29 32 35 36 37 39 38 37 38 38 36 35 35 33 33 34 53 41 51 37 31 36 32 31 22
20 23 26 23 22 20 20 20 18 16 13 11 12 11 13 18 23 28 34 39 42 42 40 40 41 40 40 40 37 36 37 36 41 40 51 63 65 62 54 28 24 17 14
Wind_Direction_850mb
160 156 160 150 140 132 122 113 103 95 86 76 67 58 47 35 35 38 33 20 11 16 13 1 358 356 353 351 351 352 351 347 344 340 336 330 327 323 325 338 350 350 347
153 159 158 151 145 135 123 112 102 92 80 69 59 52 48 43 37 4 338 332 329 335 325 316 313 319 327 330 331 332 333 331 329 327 325 322 317 313 314 315 319 330 336
157 157 155 152 146 135 122 110 98 84 74 75 67 37 356 336 330 328 330 332 334 334 326 312 305 301 300 301 303 303 312 308 307 311 313 309 308 307 296 307 303 313 318
158 155 153 150 145 136 125 117 102 88 57 19 10 359 347 345 346 344 341 342 341 338 334 326 319 313 308 304 298 292 291 293 298 298 295 299 298 301 297 293 301 303 310
158 156 153 151 148 140 130 116 108 54 23 23 16 3 356 355 353 349 347 345 342 337 331 325 320 315 312 308 302 296 290 288 287 286 287 290 289 290 291 290 291 298 293
156 156 156 153 151 141 131 117 74 35 30 17 2 1 357 356 356 354 350 345 339 337 334 332 326 320 316 313 308 302 296 291 287 286 284 283 282 280 279 277 280 284 282
156 157 157 153 146 141 131 99 53 35 19 8 2 3 5 3 355 350 348 347 345 342 340 339 334 331 328 325 319 313 307 302 298 293 288 285 284 280 273 269 272 275 283
160 158 158 154 157 156 126 80 43 19 8 9 5 7 3 357 355 353 350 350 354 351 347 344 340 339 333 329 323 319 316 312 311 308 302 296 290 286 284 274 268 273 277
164 164 162 162 165 157 131 72 23 11 9 7 5 5 3 359 357 358 359 359 358 355 353 351 346 343 339 334 329 327 325 322 320 319 317 308 302 304 311 313 281 275 276
161 166 170 170 168 159 131 59 23 9 4 6 8 7 3 5 6 5 5 3 3 0 356 353 350 347 344 342 340 336 330 328 325 323 323 324 324 323 323 306 303 303 281
169 171 178 180 174 164 140 65 19 8 8 7 6 5 12 12 13 12 10 8 5 0 358 354 349 347 349 346 342 338 336 334 334 332 331 330 336 356 306 299 301 298 298
176 177 182 185 180 168 164 63 19 10 8 8 7 11 15 17 18 17 12 9 5 2 357 354 353 351 346 345 344 342 339 337 337 338 340 342 344 352 335 328 307 296 295
187 192 186 188 185 183 183 49 14 8 7 7 10 13 14 19 20 13 12 9 6 0 357 357 354 352 352 346 344 342 341 338 337 340 343 348 346 348 347 335 326 320 314
187 189 185 187 189 195 212 7 3 4 2 4 8 10 13 14 12 10 8 4 1 1 2 359 358 357 354 349 345 343 342 341 340 340 345 348 348 349 346 337 336 332 327
192 187 188 194 202 211 241 309 342 353 351 357 2 2 1 359 4 3 1 360 0 1 1 360 360 360 356 353 349 344 344 343 348 353 357 4 14 351 339 326 341 0 6
197 198 202 210 216 229 261 284 308 327 339 350 350 350 346 349 352 352 354 357 357 358 360 360 0 2 357 349 348 350 347 348 4 6 5 11 16 2 337 326 327 338 345
203 213 215 225 233 241 260 276 289 308 324 333 336 335 337 337 339 344 350 353 353 353 358 358 1 1 356 356 350 351 352 3 11 21 35 23 16 4 343 339 337 342 343
206 219 221 226 238 247 258 268 280 297 311 319 324 326 331 328 332 338 344 348 349 350 355 356 354 3 5 360 359 0 11 10 25 16 15 26 14 355 349 350 2 10 10
209 217 228 232 242 248 259 269 278 293 302 309 316 322 326 325 326 331 340 343 347 350 350 355 358 358 3 3 1 359 6 7 5 1 358 353 344 343 345 3 360 357 1
211 215 232 238 243 252 263 273 283 291 293 296 305 313 322 320 318 330 337 340 346 346 347 352 355 356 357 1 1 351 347 334 334 330 325 319 329 325 332 341 336 340 344
213 218 227 248 249 258 269 276 281 283 287 290 298 308 313 312 322 328 331 336 338 339 342 344 347 350 349 352 356 351 329 311 311 323 311 303 309 321 312 318 323 321 328
218 223 236 250 253 259 266 271 278 285 285 288 297 302 310 315 316 319 327 332 330 332 334 334 338 341 344 346 352 353 341 313 304 316 287 289 296 307 312 314 313 312 316
213 228 242 247 253 256 263 270 277 279 285 290 286 303 307 307 316 321 325 326 326 327 328 327 329 330 333 338 340 345 337 312 325 330 317 303 300 307 314 312 307 307 306
220 236 247 256 257 255 258 265 272 279 285 278 289 294 299 308 315 318 321 323 325 325 323 322 321 323 323 326 325 325 318 311 316 313 287 313 297 320 321 325 314 312 310
227 247 260 263 254 250 252 257 262 275 276 273 283 292 301 309 316 317 319 319 319 317 316 315 316 316 316 317 314 311 306 306 301 290 302 304 304 310 313 325 324 316 310
246 262 265 256 242 235 238 243 256 265 266 271 281 293 303 312 315 317 318 317 316 315 315 314 314 314 313 309 307 302 298 296 298 296 293 302 306 311 312 311 317 332 311